| time (UTC) | temp F | wind direction | speed knots | gust knots | rain 1hr in | rain 24hr in | rain mn in | humidity % | barometer mb |
| 20260506215019 | 57 | 0.0 | 1.7 | 0.00 | 0.01 | 0.00 | 84 | 1015.2 | |
| 20260506214108 | 57 | 88 | 0.9 | 1.7 | 0.00 | 0.01 | 0.00 | 84 | 1015.2 |
| 20260506213104 | 57 | 100 | 0.9 | 1.7 | 0.00 | 0.01 | 0.00 | 83 | 1015.2 |
| 20260506212053 | 58 | 113 | 0.9 | 1.7 | 0.00 | 0.01 | 0.00 | 82 | 1015.2 |
| 20260506211043 | 58 | 95 | 0.9 | 1.7 | 0.00 | 0.01 | 0.00 | 81 | 1015.3 |
| 20260506210040 | 58 | 90 | 0.9 | 1.7 | 0.00 | 0.01 | 0.00 | 81 | 1015.2 |
| 20260506205031 | 58 | 105 | 0.9 | 1.7 | 0.00 | 0.01 | 0.00 | 80 | 1015.4 |
| 20260506204019 | 58 | 87 | 0.9 | 1.7 | 0.00 | 0.01 | 0.00 | 80 | 1015.3 |
| 20260506203016 | 58 | 120 | 1.7 | 1.7 | 0.00 | 0.01 | 0.00 | 80 | 1015.3 |
| 20260506202106 | 58 | 113 | 0.9 | 1.7 | 0.00 | 0.01 | 0.00 | 80 | 1015.2 |
| 20260506201057 | 58 | 94 | 0.9 | 1.7 | 0.00 | 0.01 | 0.00 | 80 | 1015.1 |
| 20260506200112 | 58 | 83 | 0.9 | 1.7 | 0.00 | 0.01 | 0.00 | 80 | 1015.1 |
| 20260506195041 | 58 | 117 | 0.9 | 1.7 | 0.00 | 0.01 | 0.00 | 80 | 1015.1 |
| 20260506194031 | 58 | 125 | 1.7 | 3.5 | 0.00 | 0.01 | 0.00 | 80 | 1015.0 |
| 20260506193027 | 58 | 132 | 1.7 | 3.5 | 0.00 | 0.01 | 0.00 | 79 | 1014.9 |
| 20260506192017 | 59 | 109 | 1.7 | 3.5 | 0.00 | 0.01 | 0.00 | 79 | 1014.8 |
| 20260506191108 | 59 | 107 | 1.7 | 3.5 | 0.00 | 0.01 | 0.00 | 79 | 1015.0 |
| 20260506190105 | 59 | 131 | 0.9 | 3.5 | 0.00 | 0.01 | 0.00 | 78 | 1014.8 |
| 20260506185055 | 59 | 118 | 1.7 | 3.5 | 0.00 | 0.01 | 0.00 | 77 | 1014.8 |
| 20260506184044 | 59 | 135 | 1.7 | 3.5 | 0.00 | 0.01 | 0.00 | 77 | 1014.7 |
| 20260506183039 | 60 | 142 | 0.9 | 3.5 | 0.00 | 0.01 | 0.00 | 77 | 1014.8 |
| 20260506182031 | 60 | 110 | 1.7 | 5.2 | 0.00 | 0.01 | 0.00 | 77 | 1015.0 |
| 20260506181101 | 60 | 133 | 1.7 | 3.5 | 0.00 | 0.01 | 0.00 | 76 | 1015.0 |
| 20260506180015 | 61 | 176 | 0.9 | 3.5 | 0.00 | 0.01 | 0.00 | 77 | 1015.0 |
| 20260506175106 | 61 | 331 | 0.9 | 3.5 | 0.00 | 0.01 | 0.00 | 77 | 1015.0 |
| 20260506174057 | 61 | 56 | 0.9 | 3.5 | 0.00 | 0.01 | 0.00 | 77 | 1015.0 |
| 20260506173052 | 62 | 154 | 1.7 | 5.2 | 0.00 | 0.01 | 0.00 | 76 | 1014.8 |
| 20260506172042 | 62 | 117 | 2.6 | 5.2 | 0.00 | 0.01 | 0.00 | 76 | 1014.9 |
| 20260506171034 | 63 | 313 | 2.6 | 6.1 | 0.00 | 0.01 | 0.00 | 75 | 1015.0 |
| 20260506170028 | 64 | 173 | 1.7 | 3.5 | 0.00 | 0.01 | 0.00 | 73 | 1015.1 |
| 20260506164544 | 65 | 30 | 1.7 | 3.5 | 0.00 | 0.01 | 0.00 | 72 | 1015.0 |
| 20260506163541 | 65 | 252 | 1.7 | 3.5 | 0.00 | 0.01 | 0.00 | 71 | 1014.9 |
| 20260506162530 | 65 | 201 | 0.9 | 3.5 | 0.00 | 0.01 | 0.00 | 71 | 1014.9 |
| 20260506161520 | 64 | 109 | 1.7 | 3.5 | 0.00 | 0.01 | 0.00 | 71 | 1014.8 |
| 20260506160516 | 65 | 5 | 0.9 | 1.7 | 0.00 | 0.01 | 0.00 | 69 | 1014.9 |
| 20260506155610 | 64 | 161 | 1.7 | 5.2 | 0.00 | 0.01 | 0.00 | 71 | 1014.9 |
| 20260506154624 | 65 | 43 | 1.7 | 3.5 | 0.00 | 0.01 | 0.00 | 69 | 1014.9 |
| 20260506153555 | 65 | 211 | 1.7 | 3.5 | 0.00 | 0.01 | 0.00 | 69 | 1014.9 |
| 20260506152544 | 63 | 300 | 0.9 | 3.5 | 0.00 | 0.01 | 0.00 | 70 | 1015.1 |
| 20260506151540 | 64 | 9 | 1.7 | 6.1 | 0.00 | 0.01 | 0.00 | 70 | 1015.1 |
| 20260506150531 | 62 | 237 | 2.6 | 6.1 | 0.00 | 0.01 | 0.00 | 72 | 1015.2 |
| 20260506145522 | 62 | 316 | 4.3 | 9.6 | 0.00 | 0.01 | 0.00 | 72 | 1015.3 |
| 20260506144516 | 62 | 327 | 4.3 | 9.6 | 0.00 | 0.01 | 0.00 | 74 | 1015.2 |
| 20260506143108 | 63 | 310 | 3.5 | 7.8 | 0.00 | 0.01 | 0.00 | 73 | 1015.3 |
| 20260506142124 | 63 | 324 | 3.5 | 7.0 | 0.00 | 0.01 | 0.00 | 71 | 1015.5 |
| 20260506141054 | 62 | 301 | 3.5 | 7.0 | 0.00 | 0.01 | 0.00 | 72 | 1015.4 |
| 20260506140045 | 61 | 303 | 4.3 | 11.3 | 0.00 | 0.01 | 0.00 | 72 | 1015.4 |
| 20260506135040 | 63 | 355 | 2.6 | 7.8 | 0.00 | 0.01 | 0.00 | 72 | 1015.6 |
| 20260506134051 | 62 | 296 | 1.7 | 5.2 | 0.00 | 0.01 | 0.00 | 73 | 1015.7 |
| 20260506133020 | 62 | 313 | 2.6 | 7.0 | 0.00 | 0.01 | 0.00 | 74 | 1015.8 |
| 20260506132016 | 62 | 261 | 2.6 | 7.0 | 0.00 | 0.01 | 0.00 | 75 | 1015.9 |
| 20260506131108 | 61 | 263 | 3.5 | 9.6 | 0.00 | 0.01 | 0.00 | 76 | 1015.8 |
| 20260506130057 | 61 | 34 | 1.7 | 5.2 | 0.00 | 0.01 | 0.00 | 75 | 1015.6 |
| 20260506125053 | 61 | 271 | 2.6 | 7.8 | 0.00 | 0.01 | 0.00 | 75 | 1016.0 |
| 20260506124042 | 62 | 237 | 1.7 | 3.5 | 0.00 | 0.01 | 0.00 | 71 | 1015.9 |
| 20260506123034 | 61 | 296 | 2.6 | 6.1 | 0.00 | 0.01 | 0.00 | 74 | 1016.0 |
| 20260506122028 | 61 | 348 | 3.5 | 9.6 | 0.00 | 0.01 | 0.00 | 74 | 1016.0 |
| 20260506120543 | 61 | 314 | 3.5 | 7.0 | 0.00 | 0.01 | 0.00 | 73 | 1016.0 |
| 20260506115532 | 62 | 307 | 2.6 | 6.1 | 0.00 | 0.01 | 0.00 | 69 | 1016.0 |
| 20260506114528 | 63 | 299 | 1.7 | 5.2 | 0.00 | 0.01 | 0.00 | 67 | 1016.1 |
| 20260506113518 | 62 | 355 | 2.6 | 7.0 | 0.00 | 0.01 | 0.00 | 69 | 1016.1 |
| 20260506112608 | 61 | 12 | 2.6 | 7.0 | 0.00 | 0.01 | 0.00 | 70 | 1016.1 |
| 20260506111604 | 62 | 10 | 2.6 | 5.2 | 0.00 | 0.01 | 0.00 | 69 | 1016.2 |
| 20260506110555 | 61 | 297 | 3.5 | 6.1 | 0.00 | 0.01 | 0.00 | 72 | 1016.2 |
| 20260506105545 | 61 | 307 | 3.5 | 7.0 | 0.00 | 0.01 | 0.00 | 70 | 1016.3 |
| 20260506104541 | 61 | 306 | 1.7 | 5.2 | 0.00 | 0.01 | 0.00 | 71 | 1016.3 |
| 20260506103531 | 61 | 288 | 2.6 | 7.0 | 0.00 | 0.01 | 0.00 | 68 | 1016.3 |
| 20260506102520 | 61 | 328 | 2.6 | 6.1 | 0.00 | 0.01 | 0.00 | 68 | 1016.4 |
| 20260506101516 | 61 | 295 | 2.6 | 6.1 | 0.00 | 0.01 | 0.00 | 69 | 1016.3 |
| 20260506100607 | 61 | 326 | 1.7 | 5.2 | 0.00 | 0.01 | 0.00 | 69 | 1016.2 |
| 20260506095557 | 60 | 258 | 1.7 | 3.5 | 0.00 | 0.01 | 0.00 | 71 | 1016.3 |
| 20260506094554 | 60 | 297 | 2.6 | 6.1 | 0.00 | 0.01 | 0.00 | 71 | 1016.2 |
| 20260506093543 | 60 | 52 | 0.9 | 3.5 | 0.00 | 0.01 | 0.00 | 73 | 1016.3 |
| 20260506092533 | 59 | 333 | 1.7 | 5.2 | 0.00 | 0.01 | 0.00 | 73 | 1016.3 |
| 20260506091530 | 60 | 221 | 0.9 | 3.5 | 0.00 | 0.01 | 0.00 | 73 | 1016.3 |
| 20260506090540 | 59 | 298 | 1.7 | 6.1 | 0.00 | 0.01 | 0.00 | 74 | 1016.2 |
| 20260506085610 | 59 | 285 | 1.7 | 3.5 | 0.00 | 0.01 | 0.00 | 75 | 1016.2 |
| 20260506084605 | 58 | 271 | 1.7 | 3.5 | 0.00 | 0.01 | 0.00 | 76 | 1016.2 |
| 20260506083555 | 57 | 237 | 1.7 | 3.5 | 0.00 | 0.01 | 0.00 | 78 | 1016.2 |
| 20260506082608 | 57 | 245 | 2.6 | 5.2 | 0.00 | 0.01 | 0.00 | 78 | 1016.1 |
| 20260506081542 | 56 | 295 | 1.7 | 5.2 | 0.00 | 0.01 | 0.00 | 80 | 1016.2 |
| 20260506080554 | 56 | 242 | 0.9 | 3.5 | 0.00 | 0.01 | 0.00 | 81 | 1016.2 |
| 20260506072540 | 55 | 258 | 1.7 | 3.5 | 0.00 | 0.01 | 0.00 | 81 | 1016.2 |
| 20260506071610 | 55 | 176 | 0.9 | 3.5 | 0.00 | 0.01 | 0.00 | 81 | 1016.3 |
| 20260506070605 | 55 | 281 | 0.0 | 1.7 | 0.00 | 0.01 | 0.00 | 81 | 1016.2 |
| 20260506061544 | 54 | 208 | 0.9 | 1.7 | 0.00 | 0.01 | 0.00 | 82 | 1015.8 |
| 20260506060520 | 54 | 234 | 0.9 | 3.5 | 0.00 | 0.01 | 0.00 | 82 | 1015.9 |
| 20260506050530 | 53 | 248 | 1.7 | 3.5 | 0.00 | 0.01 | 0.00 | 84 | 1015.6 |
| 20260506044516 | 53 | 254 | 1.7 | 3.5 | 0.00 | 0.01 | 0.00 | 85 | 1015.6 |
| 20260506043608 | 53 | 242 | 2.6 | 5.2 | 0.00 | 0.01 | 0.00 | 85 | 1015.7 |
| 20260506042557 | 53 | 257 | 1.7 | 3.5 | 0.00 | 0.01 | 0.00 | 86 | 1015.6 |
| 20260506041553 | 53 | 255 | 0.9 | 1.7 | 0.00 | 0.01 | 0.00 | 86 | 1015.8 |
| 20260506040543 | 53 | 267 | 0.9 | 3.5 | 0.00 | 0.01 | 0.00 | 86 | 1015.8 |
| 20260506035534 | 53 | 221 | 2.6 | 5.2 | 0.00 | 0.01 | 0.00 | 86 | 1015.7 |
| 20260506034549 | 53 | 246 | 1.7 | 3.5 | 0.00 | 0.01 | 0.00 | 86 | 1015.8 |
| 20260506033541 | 53 | 262 | 1.7 | 3.5 | 0.00 | 0.01 | 0.00 | 86 | 1015.8 |
| 20260506032631 | 53 | 266 | 0.9 | 3.5 | 0.00 | 0.01 | 0.00 | 86 | 1016.0 |
| 20260506031606 | 53 | 260 | 1.7 | 5.2 | 0.00 | 0.01 | 0.00 | 86 | 1015.8 |
| 20260506030106 | 53 | 247 | 0.9 | 3.5 | 0.00 | 0.01 | 0.00 | 86 | 1015.9 |
| 20260506025056 | 53 | 236 | 1.7 | 3.5 | 0.00 | 0.01 | 0.00 | 86 | 1015.8 |
| 20260506024106 | 53 | 222 | 0.9 | 3.5 | 0.00 | 0.01 | 0.00 | 87 | 1016.0 |
| 20260506023042 | 53 | 235 | 1.7 | 3.5 | 0.00 | 0.01 | 0.00 | 87 | 1016.0 |
| 20260506022032 | 53 | 249 | 1.7 | 5.2 | 0.00 | 0.01 | 0.00 | 87 | 1015.9 |
| 20260506021022 | 53 | 228 | 0.9 | 3.5 | 0.00 | 0.01 | 0.00 | 87 | 1016.0 |
| 20260506020018 | 53 | 243 | 1.7 | 3.5 | 0.00 | 0.01 | 0.00 | 87 | 1016.0 |
| 20260506015108 | 53 | 252 | 0.9 | 1.7 | 0.00 | 0.01 | 0.00 | 87 | 1016.1 |
| 20260506014058 | 53 | 263 | 0.9 | 1.7 | 0.00 | 0.01 | 0.00 | 88 | 1016.0 |
| 20260506013054 | 53 | 275 | 0.9 | 3.5 | 0.00 | 0.01 | 0.00 | 88 | 1016.0 |
| 20260506012146 | 53 | 252 | 0.9 | 3.5 | 0.00 | 0.01 | 0.00 | 88 | 1016.1 |
| 20260506011036 | 53 | 265 | 1.7 | 3.5 | 0.00 | 0.01 | 0.00 | 88 | 1016.4 |
| 20260506010031 | 53 | 259 | 2.6 | 5.2 | 0.00 | 0.01 | 0.00 | 88 | 1016.5 |
| 20260506004542 | 54 | 252 | 0.9 | 3.5 | 0.00 | 0.01 | 0.00 | 87 | 1016.7 |
| 20260506003615 | 54 | 225 | 0.9 | 3.5 | 0.00 | 0.01 | 0.00 | 87 | 1016.7 |
| 20260506002522 | 54 | 253 | 1.7 | 3.5 | 0.00 | 0.01 | 0.00 | 87 | 1016.7 |
| 20260506001518 | 54 | 261 | 0.9 | 3.5 | 0.00 | 0.01 | 0.00 | 87 | 1016.7 |
| 20260506000608 | 54 | 265 | 1.7 | 3.5 | 0.00 | 0.01 | 0.00 | 87 | 1016.7 |
| 20260505235559 | 54 | 243 | 2.6 | 5.2 | 0.00 | 0.01 | 0.00 | 87 | 1016.8 |
| 20260505234554 | 54 | 233 | 1.7 | 5.2 | 0.00 | 0.01 | 0.00 | 88 | 1016.8 |
| 20260505233605 | 54 | 257 | 1.7 | 3.5 | 0.00 | 0.01 | 0.00 | 88 | 1016.9 |
| 20260505232534 | 54 | 249 | 2.6 | 5.2 | 0.00 | 0.01 | 0.00 | 88 | 1016.8 |
| 20260505231530 | 54 | 241 | 1.7 | 3.5 | 0.00 | 0.01 | 0.00 | 88 | 1016.9 |
| 20260505230520 | 55 | 234 | 1.7 | 3.5 | 0.00 | 0.01 | 0.00 | 88 | 1016.9 |
| 20260505225612 | 55 | 234 | 1.7 | 6.1 | 0.01 | 0.01 | 0.01 | 88 | 1017.0 |
| 20260505224606 | 55 | 218 | 1.7 | 3.5 | 0.01 | 0.01 | 0.01 | 88 | 1016.9 |
| 20260505223556 | 55 | 202 | 0.9 | 3.5 | 0.01 | 0.01 | 0.01 | 88 | 1017.0 |
| 20260505222546 | 55 | 277 | 0.9 | 3.5 | 0.01 | 0.01 | 0.01 | 88 | 1017.1 |
| 20260505221602 | 55 | 243 | 1.7 | 3.5 | 0.01 | 0.01 | 0.01 | 88 | 1017.0 |
| 20260505220552 | 56 | 237 | 1.7 | 3.5 | 0.01 | 0.01 | 0.01 | 87 | 1017.0 |